Regional Weather Roundup
Issued by NWS

Home | Current Version | Previous Version | Graphics & Text | Print | Product List | Glossary On
Versions: 1 2 3 4 5 6 7 8 9 10 11 12 13 14 15 16 17 18 19 20 21 22 23 24 25 26 27 28 29 30 31 32 33 34 35 36 37 38 39 40 41 42 43 44 45 46 47 48 49 50
000
ASUS43 KLMK 191110
RWRKY
KENTUCKY REGIONAL WEATHER ROUNDUP
NATIONAL WEATHER SERVICE LOUISVILLE KY
700 AM EDT TUE SEP 19 2017

NOTE "FAIR" INDICATES FEW OR NO CLOUDS BELOW 12,000 FEET
WITH NO SIGNIFICANT WEATHER AND/OR OBSTRUCTIONS TO VISIBILITY.

KYZ001>023-026-027-061>063-070>075-191200-
WESTERN AND SOUTH CENTRAL KENTUCKY

CITY           SKY/WX    TMP DP  RH WIND       PRES   REMARKS
PADUCAH        MOCLDY    69  66  90 CALM      29.92R FOG
HENDERSON      LGT RAIN  70  68  94 E5        29.95R FOG
OWENSBORO      CLOUDY    69  68  96 NW6       29.96R
HOPKINSVILLE   PTCLDY    72  68  88 S3        29.94R
BOWLING GREEN  CLOUDY    67  67 100 CALM      29.97R
GLASGOW        MOCLDY   N/A N/A N/A CALM      29.97S
$$

KYZ024-025-028>034-038-045-046-053-191200-
NORTH CENTRAL KENTUCKY

CITY           SKY/WX    TMP DP  RH WIND       PRES   REMARKS
LOUISVILLE/SDF CLOUDY    73  69  87 E5        29.95R
LOUISVILLE/LOU CLOUDY    72  72 100 CALM      29.96S
FORT KNOX      CLOUDY    68  68 100 W3        29.94R
$$

KYZ035>037-039>044-047>052-055>060-089>105-191200-
NORTHEAST KENTUCKY

CITY           SKY/WX    TMP DP  RH WIND       PRES   REMARKS
LEXINGTON      CLOUDY    69  64  84 SE6       29.99S
COVINGTON      CLOUDY    70  67  90 S5        29.96S
FRANKFORT      MOCLDY    70  66  87 SE5       29.96S
$$

KYZ054-064>069-076>088-106>120-191200-
SOUTHEAST KENTUCKY

CITY           SKY/WX    TMP DP  RH WIND       PRES   REMARKS
JACKSON        CLOUDY    64  60  87 CALM      30.02S
LONDON         CLEAR     64  62  93 CALM      30.02R FOG
SOMERSET       MOCLDY    61  61 100 CALM      30.02R FOG
MIDDLESBORO    CLOUDY    61  61 100 CALM      30.05R FOG
MONTICELLO     SUNNY     62  62 100 W10       30.03R FOG
$$





USA.gov is the U.S. government's official web portal to all federal, state and local government web resources and services.